Weather History for KBDR - December, 2012

Change the Weather History Date:

Sunday, December 9, 2012

  Actual Average Record
Temperature  
Mean Temperature 44 °F 38 °F  
Max Temperature 49 °F 44 °F 63 °F (1991)
Min Temperature 39 °F 31 °F 10 °F (1968)
Degree Days  
Heating Degree Days 21 28  
Month to date heating degree days 197 235  
Since 1 July heating degree days 1113 1209  
Cooling Degree Days 0 0  
Month to date cooling degree days 0 0  
Year to date cooling degree days 1075 825  
Moisture  
Dew Point 41 °F    
Average Humidity 80    
Maximum Humidity 100    
Minimum Humidity 60    
Precipitation  
Precipitation 0.24 in 0.11 in 2.13 in (2014)
Month to date precipitation 0.72 1.05  
Year to date precipitation 37.39 40.46  
Snow  
Snow 0.00 in 0.20 in 6.00 in (2005)
Month to date snowfall T 1.0  
Since 1 July snowfall 8.4 1.7  
Snow Depth 0.00 in    
Sea Level Pressure  
Sea Level Pressure 30.14 in    
Wind  
Wind Speed 8 mph (NE)    
Max Wind Speed 20 mph    
Max Gust Speed 25 mph    
Visibility 5 miles    
Events Fog , Rain    
T = Trace of Precipitation, MM = Missing Value Source: NWS Daily Summary

Daily Weather History Graph

Daily Weather History Graph

Search for Another Location

Airport or City:

Trip Planner

Search our weather history database for the weather conditions in past years. The results will help you decide how hot, cold, wet, or windy it might be!

Date:

Astronomy

Dec. 09, 2012 Rise Set
Actual Time 7:06 AM EST 4:23 PM EST
Civil Twilight 6:35 AM EST 4:54 PM EST
Nautical Twilight 6:00 AM EST 5:29 PM EST
Astronomical Twilight 5:27 AM EST 6:02 PM EST
Moon 2:34 AM EST (12/9) 1:30 PM EST (12/9)
Length of Visible Light 10h 19m
Length of Day
9h 17m
Waning Crescent, 19% of the Moon is Illuminated
Dec 9
Waning Crescent
Dec 13
New
Dec 20
First Quarter
Dec 28
Full
Jan 4
Last Quarter

Hourly Weather History & Observations

Time (EST) Temp. Windchill Dew Point Humidity Pressure Visibility Wind Dir Wind Speed Gust Speed Precip Events Conditions
12:52 AM 48.0 °F - 46.9 °F 96% 30.00 in 3.0 mi WSW 3.5 mph - 0.00 in   Overcast
1:52 AM 46.9 °F - 46.0 °F 97% 30.03 in 3.0 mi Calm Calm - 0.00 in   Mostly Cloudy
2:04 AM 46.4 °F - 46.4 °F 100% 30.04 in 2.5 mi Calm Calm - N/A   Partly Cloudy
2:22 AM 46.4 °F - 46.4 °F 100% 30.04 in 1.5 mi Calm Calm - N/A   Partly Cloudy
2:29 AM 44.6 °F - 44.6 °F 100% 30.05 in 0.8 mi Calm Calm - N/A   Mist
2:37 AM 42.8 °F - 42.8 °F 100% 30.05 in 0.2 mi Calm Calm - N/A Fog Fog
2:52 AM 45.0 °F 43.5 °F 43.0 °F 93% 30.06 in 0.8 mi NNW 3.5 mph - N/A   Mist
2:56 AM 46.4 °F - 44.6 °F 93% 30.06 in 2.0 mi Calm Calm - N/A   Overcast
3:04 AM 46.4 °F 45.2 °F 46.4 °F 100% 30.06 in 3.0 mi North 3.5 mph - N/A   Overcast
3:50 AM 46.4 °F 45.2 °F 46.4 °F 100% 30.08 in 7.0 mi NNE 3.5 mph - N/A   Mostly Cloudy
3:52 AM 46.9 °F - 46.0 °F 97% 30.08 in 7.0 mi Calm Calm - N/A   Mostly Cloudy
4:48 AM 46.4 °F - 44.6 °F 93% 30.10 in 10.0 mi Calm Calm - N/A   Scattered Clouds
4:52 AM 46.9 °F - 45.0 °F 93% 30.11 in 9.0 mi Calm Calm - N/A   Partly Cloudy
5:16 AM 42.8 °F - 42.8 °F 100% 30.12 in 1.0 mi Calm Calm - N/A   Mist
5:22 AM 42.8 °F - 41.0 °F 93% 30.12 in 0.5 mi Calm Calm - N/A Fog Fog
5:28 AM 44.6 °F - 41.0 °F 87% 30.12 in 1.0 mi Calm Calm - N/A   Mist
5:49 AM 42.8 °F - 42.8 °F 100% 30.14 in 1.8 mi Calm Calm - N/A   Clear
5:52 AM 44.1 °F - 42.1 °F 93% 30.14 in 1.8 mi Calm Calm - N/A   Clear
5:57 AM 41.0 °F - 41.0 °F 100% 30.14 in 0.5 mi Calm Calm - N/A Fog Fog
6:23 AM 42.8 °F - 42.8 °F 100% 30.16 in 1.0 mi Calm Calm - N/A   Mist
6:38 AM 42.8 °F - 42.8 °F 100% 30.17 in 2.5 mi Calm Calm - N/A   Partly Cloudy
6:45 AM 41.0 °F 38.0 °F 41.0 °F 100% 30.17 in 6.0 mi NE 4.6 mph - N/A   Clear
6:52 AM 43.0 °F 39.5 °F 42.1 °F 97% 30.17 in 10.0 mi NE 5.8 mph - N/A   Clear
7:52 AM 44.1 °F 38.6 °F 37.0 °F 76% 30.22 in 10.0 mi North 10.4 mph - N/A   Clear
8:52 AM 45.0 °F 38.2 °F 35.1 °F 68% 30.23 in 10.0 mi North 15.0 mph 21.9 mph N/A   Mostly Cloudy
9:52 AM 45.0 °F 39.7 °F 34.0 °F 65% 30.25 in 10.0 mi North 10.4 mph - N/A   Overcast
10:52 AM 45.0 °F 40.6 °F 34.0 °F 65% 30.25 in 10.0 mi North 8.1 mph - N/A   Overcast
11:52 AM 45.0 °F 41.2 °F 34.0 °F 65% 30.23 in 10.0 mi North 6.9 mph - N/A   Overcast
12:52 PM 46.0 °F 43.1 °F 34.0 °F 63% 30.23 in 10.0 mi NNE 5.8 mph - 0.00 in   Mostly Cloudy
1:52 PM 46.0 °F 41.4 °F 35.1 °F 66% 30.22 in 10.0 mi NNE 9.2 mph - 0.00 in   Mostly Cloudy
2:52 PM 45.0 °F 40.1 °F 35.1 °F 68% 30.23 in 10.0 mi NNE 9.2 mph - 0.00 in   Overcast
3:52 PM 45.0 °F 41.8 °F 36.0 °F 71% 30.22 in 10.0 mi NE 5.8 mph - 0.00 in Rain Light Rain
4:52 PM 44.1 °F 40.8 °F 37.9 °F 79% 30.22 in 10.0 mi NE 5.8 mph - 0.01 in Rain Light Rain
5:52 PM 43.0 °F 37.7 °F 39.0 °F 86% 30.22 in 10.0 mi NE 9.2 mph - 0.00 in Rain Light Rain
6:06 PM 42.8 °F 38.6 °F 39.2 °F 87% 30.23 in 10.0 mi NNE 6.9 mph - 0.01 in Rain Light Rain
6:17 PM 42.8 °F 38.0 °F 39.2 °F 87% 30.23 in 8.0 mi NNE 8.1 mph - 0.01 in Rain Light Rain
6:52 PM 43.0 °F 37.2 °F 39.9 °F 89% 30.22 in 9.0 mi NE 10.4 mph - 0.03 in Rain Light Rain
7:11 PM 42.8 °F 37.0 °F 39.2 °F 87% 30.21 in 10.0 mi ENE 10.4 mph - 0.00 in   Overcast
7:29 PM 42.8 °F 37.0 °F 39.2 °F 87% 30.21 in 10.0 mi ENE 10.4 mph - 0.00 in   Overcast
7:52 PM 43.0 °F 35.7 °F 39.9 °F 89% 30.20 in 4.0 mi ENE 15.0 mph - 0.01 in Rain Light Rain
8:24 PM 42.8 °F 35.1 °F 41.0 °F 93% 30.19 in 3.0 mi ENE 16.1 mph - 0.01 in Rain Light Rain
8:52 PM 44.1 °F 36.2 °F 42.1 °F 93% 30.18 in 3.0 mi East 18.4 mph - 0.03 in Rain Light Rain
9:04 PM 44.6 °F 37.4 °F 42.8 °F 93% 30.17 in 2.5 mi East 16.1 mph - 0.01 in Rain Light Rain
9:12 PM 44.6 °F 36.9 °F 42.8 °F 93% 30.17 in 3.0 mi East 18.4 mph - 0.01 in Rain Light Rain
9:27 PM 44.6 °F 37.2 °F 42.8 °F 93% 30.15 in 4.0 mi East 17.3 mph - 0.02 in Rain Light Rain
9:31 PM 44.6 °F 36.9 °F 42.8 °F 93% 30.15 in 4.0 mi East 18.4 mph 25.3 mph 0.02 in Rain Light Rain
9:44 PM 42.8 °F 35.4 °F 42.8 °F 100% 30.14 in 4.0 mi ENE 15.0 mph - 0.02 in Rain Light Rain
9:52 PM 43.0 °F 36.0 °F 42.1 °F 97% 30.13 in 4.0 mi ENE 13.8 mph - 0.03 in Rain Light Rain
10:12 PM 42.8 °F 35.8 °F 41.0 °F 93% 30.11 in 7.0 mi ENE 13.8 mph - 0.00 in Rain Light Rain
10:52 PM 43.0 °F 36.0 °F 42.1 °F 97% 30.09 in 5.0 mi ENE 13.8 mph - 0.01 in Rain Light Rain
11:52 PM 43.0 °F 36.4 °F 42.1 °F 97% 30.06 in 3.0 mi NE 12.7 mph - 0.09 in Rain Heavy Rain
11:59 PM 42.8 °F 36.6 °F 42.8 °F 100% 30.05 in 2.5 mi NE 11.5 mph - 0.03 in Rain Rain